TimeEST,TemperatureF,Dew PointF,Humidity,Sea Level PressureIn,VisibilityMPH,Wind Direction,Wind SpeedMPH,Gust SpeedMPH,PrecipitationIn,Events,Conditions,WindDirDegrees,DateUTC
12:53 AM,25.0,19.9,81,30.13,10.0,Calm,Calm,-,N/A,,Clear,0,2013-03-05 05:53:00
2:53 AM,24.1,21.9,91,30.12,5.0,Calm,Calm,-,N/A,,Clear,0,2013-03-05 07:53:00
4:53 AM,24.1,19.9,84,30.09,8.0,East,3.5,-,N/A,,Clear,90,2013-03-05 09:53:00
5:53 AM,23.0,19.9,88,30.09,7.0,East,5.8,-,N/A,,Clear,80,2013-03-05 10:53:00
6:53 AM,21.9,19.0,89,30.08,6.0,East,5.8,-,N/A,,Clear,100,2013-03-05 11:53:00
8:53 AM,26.1,19.9,78,30.06,10.0,ESE,6.9,-,N/A,,Clear,110,2013-03-05 13:53:00
9:53 AM,28.9,21.0,72,30.05,10.0,SE,5.8,-,N/A,,Clear,140,2013-03-05 14:53:00
10:53 AM,30.9,21.0,67,30.03,10.0,SE,5.8,-,N/A,,Clear,140,2013-03-05 15:53:00
11:53 AM,34.0,21.9,61,30.00,10.0,Variable,4.6,-,N/A,,Clear,0,2013-03-05 16:53:00
12:53 PM,37.0,27.0,67,29.96,10.0,ENE,6.9,-,N/A,,Clear,60,2013-03-05 17:53:00
1:53 PM,37.0,28.0,70,29.90,10.0,ENE,12.7,-,N/A,,Clear,60,2013-03-05 18:53:00
2:53 PM,35.1,27.0,72,29.87,10.0,NE,13.8,-,N/A,,Clear,50,2013-03-05 19:53:00
3:53 PM,34.0,27.0,75,29.85,10.0,NE,15.0,-,N/A,,Clear,50,2013-03-05 20:53:00
4:53 PM,32.0,26.1,79,29.83,10.0,ENE,12.7,-,N/A,,Scattered Clouds,60,2013-03-05 21:53:00
5:53 PM,30.9,26.1,82,29.79,10.0,ENE,11.5,21.9,N/A,,Overcast,70,2013-03-05 22:53:00
6:53 PM,30.9,26.1,82,29.78,10.0,ENE,12.7,-,N/A,,Overcast,60,2013-03-05 23:53:00
7:53 PM,32.0,27.0,82,29.75,10.0,ENE,12.7,-,N/A,,Overcast,60,2013-03-06 00:53:00
8:53 PM,30.9,26.1,82,29.73,10.0,ENE,17.3,24.2,N/A,,Overcast,60,2013-03-06 01:53:00
9:53 PM,30.9,26.1,82,29.71,10.0,ENE,21.9,26.5,N/A,,Mostly Cloudy,60,2013-03-06 02:53:00
10:53 PM,30.9,27.0,85,29.70,10.0,ENE,19.6,25.3,0.00,,Partly Cloudy,60,2013-03-06 03:53:00
11:53 PM,30.9,27.0,85,29.70,10.0,ENE,16.1,23.0,N/A,,Clear,60,2013-03-06 04:53:00